Year,Month,Day,Hour,Minute,Value (Times are PST for temperature in C)
2008,05,17,00,00,15.30
2008,05,17,00,01,15.30
2008,05,17,00,02,15.30
2008,05,17,00,03,15.30
2008,05,17,00,04,15.30
2008,05,17,00,05,15.40
2008,05,17,00,06,15.40
2008,05,17,00,07,15.50
2008,05,17,00,08,15.50
2008,05,17,00,09,15.50
2008,05,17,00,10,15.50
2008,05,17,00,11,15.50
2008,05,17,00,12,15.50
2008,05,17,00,13,15.60
2008,05,17,00,14,15.60
2008,05,17,00,15,15.60
2008,05,17,00,16,15.60
2008,05,17,00,17,15.60
2008,05,17,00,18,15.60
2008,05,17,00,19,15.60
2008,05,17,00,20,15.70
2008,05,17,00,21,15.70
2008,05,17,00,22,15.70
2008,05,17,00,23,15.70
2008,05,17,00,24,15.70
2008,05,17,00,25,15.70
2008,05,17,00,26,15.70
2008,05,17,00,27,15.60
2008,05,17,00,28,15.60
2008,05,17,00,29,15.50
2008,05,17,00,30,15.50
2008,05,17,00,31,15.50
2008,05,17,00,32,15.40
2008,05,17,00,33,15.40
2008,05,17,00,34,15.40
2008,05,17,00,35,15.40
2008,05,17,00,36,15.30
2008,05,17,00,37,15.30
2008,05,17,00,38,15.30
2008,05,17,00,39,15.30
2008,05,17,00,40,15.30
2008,05,17,00,41,15.20
2008,05,17,00,42,15.20
2008,05,17,00,43,15.10
2008,05,17,00,44,15.10
2008,05,17,00,45,15.00
2008,05,17,00,46,15.00
2008,05,17,00,47,14.90
2008,05,17,00,48,14.80
2008,05,17,00,49,14.80
2008,05,17,00,50,14.80
2008,05,17,00,51,14.70
2008,05,17,00,52,14.60
2008,05,17,00,53,14.50
2008,05,17,00,54,14.50
2008,05,17,00,55,14.40
2008,05,17,00,56,14.30
2008,05,17,00,57,14.30
2008,05,17,00,58,14.20
2008,05,17,00,59,14.20
2008,05,17,01,00,14.20
2008,05,17,01,01,14.10
2008,05,17,01,02,14.10
2008,05,17,01,03,14.00
2008,05,17,01,04,14.00
2008,05,17,01,05,14.00
2008,05,17,01,06,14.00
2008,05,17,01,07,14.00
2008,05,17,01,08,14.00
2008,05,17,01,09,14.00
2008,05,17,01,10,14.00
2008,05,17,01,11,14.00
2008,05,17,01,12,14.00
2008,05,17,01,13,14.00
2008,05,17,01,14,14.00
2008,05,17,01,15,13.90
2008,05,17,01,16,13.90
2008,05,17,01,17,13.90
2008,05,17,01,18,13.90
2008,05,17,01,19,14.00
2008,05,17,01,20,14.00
2008,05,17,01,21,14.00
2008,05,17,01,22,13.90
2008,05,17,01,23,13.90
2008,05,17,01,24,13.90
2008,05,17,01,25,13.80
2008,05,17,01,26,13.80
2008,05,17,01,27,13.80
2008,05,17,01,28,13.80
2008,05,17,01,29,13.70
2008,05,17,01,30,13.70
2008,05,17,01,31,13.70
2008,05,17,01,32,13.60
2008,05,17,01,33,13.60
2008,05,17,01,34,13.60
2008,05,17,01,35,13.50
2008,05,17,01,36,13.50
2008,05,17,01,37,13.40
2008,05,17,01,38,13.40
2008,05,17,01,39,13.30
2008,05,17,01,40,13.30
2008,05,17,01,41,13.30
2008,05,17,01,42,13.30
2008,05,17,01,43,13.30
2008,05,17,01,44,13.30
2008,05,17,01,45,13.30
2008,05,17,01,46,13.30
2008,05,17,01,47,13.30
2008,05,17,01,48,13.30
2008,05,17,01,49,13.30
2008,05,17,01,50,13.30
2008,05,17,01,51,13.30
2008,05,17,01,52,13.30
2008,05,17,01,53,13.40
2008,05,17,01,54,13.50
2008,05,17,01,55,13.50
2008,05,17,01,56,13.60
2008,05,17,01,57,13.60
2008,05,17,01,58,13.70
2008,05,17,01,59,13.70
2008,05,17,02,00,13.70
2008,05,17,02,01,13.70
2008,05,17,02,02,13.60
2008,05,17,02,03,13.60
2008,05,17,02,04,13.60
2008,05,17,02,05,13.50
2008,05,17,02,06,13.50
2008,05,17,02,07,13.50
2008,05,17,02,08,13.50
2008,05,17,02,09,13.40
2008,05,17,02,10,13.40
2008,05,17,02,11,13.40
2008,05,17,02,12,13.30
2008,05,17,02,13,13.30
2008,05,17,02,14,13.30
2008,05,17,02,15,13.30
2008,05,17,02,16,13.30
2008,05,17,02,17,13.30
2008,05,17,02,18,13.30
2008,05,17,02,19,13.30
2008,05,17,02,20,13.30
2008,05,17,02,21,13.30
2008,05,17,02,22,13.30
2008,05,17,02,23,13.30
2008,05,17,02,24,13.40
2008,05,17,02,25,13.40
2008,05,17,02,26,13.50
2008,05,17,02,27,13.60
2008,05,17,02,28,13.80
2008,05,17,02,29,14.00
2008,05,17,02,30,14.10
2008,05,17,02,31,14.30
2008,05,17,02,32,14.50
2008,05,17,02,33,14.60
2008,05,17,02,34,14.80
2008,05,17,02,35,14.90
2008,05,17,02,36,15.10
2008,05,17,02,37,15.20
2008,05,17,02,38,15.30
2008,05,17,02,39,15.40
2008,05,17,02,40,15.50
2008,05,17,02,41,15.60
2008,05,17,02,42,15.70
2008,05,17,02,43,15.80
2008,05,17,02,44,15.80
2008,05,17,02,45,16.00
2008,05,17,02,46,16.10
2008,05,17,02,47,16.10
2008,05,17,02,48,16.10
2008,05,17,02,49,16.20
2008,05,17,02,50,16.20
2008,05,17,02,51,16.30
2008,05,17,02,52,16.30
2008,05,17,02,53,16.40
2008,05,17,02,54,16.40
2008,05,17,02,55,16.40
2008,05,17,02,56,16.50
2008,05,17,02,57,16.60
2008,05,17,02,58,16.70
2008,05,17,02,59,16.80
2008,05,17,03,00,17.00
2008,05,17,03,01,17.10
2008,05,17,03,02,17.20
2008,05,17,03,03,17.30
2008,05,17,03,04,17.30
2008,05,17,03,05,17.30
2008,05,17,03,06,17.30
2008,05,17,03,07,17.30
2008,05,17,03,08,17.20
2008,05,17,03,09,17.10
2008,05,17,03,10,17.00
2008,05,17,03,11,17.00
2008,05,17,03,12,16.90
2008,05,17,03,13,16.90
2008,05,17,03,14,16.90
2008,05,17,03,15,16.90
2008,05,17,03,16,16.90
2008,05,17,03,17,17.00
2008,05,17,03,18,17.00
2008,05,17,03,19,17.00
2008,05,17,03,20,16.90
2008,05,17,03,21,16.90
2008,05,17,03,22,16.80
2008,05,17,03,23,16.70
2008,05,17,03,24,16.60
2008,05,17,03,25,16.50
2008,05,17,03,26,16.40
2008,05,17,03,27,16.40
2008,05,17,03,28,16.40
2008,05,17,03,29,16.40
2008,05,17,03,30,16.40
2008,05,17,03,31,16.40
2008,05,17,03,32,16.40
2008,05,17,03,33,16.40
2008,05,17,03,34,16.40
2008,05,17,03,35,16.40
2008,05,17,03,36,16.40
2008,05,17,03,37,16.40
2008,05,17,03,38,16.40
2008,05,17,03,39,16.40
2008,05,17,03,40,16.30
2008,05,17,03,41,16.40
2008,05,17,03,42,16.40
2008,05,17,03,43,16.40
2008,05,17,03,44,16.40
2008,05,17,03,45,16.40
2008,05,17,03,46,16.40
2008,05,17,03,47,16.40
2008,05,17,03,48,16.40
2008,05,17,03,49,16.40
2008,05,17,03,50,16.30
2008,05,17,03,51,16.30
2008,05,17,03,52,16.10
2008,05,17,03,53,15.90
2008,05,17,03,54,15.80
2008,05,17,03,55,15.60
2008,05,17,03,56,15.40
2008,05,17,03,57,15.20
2008,05,17,03,58,15.00
2008,05,17,03,59,14.90
2008,05,17,04,00,14.70
2008,05,17,04,01,14.60
2008,05,17,04,02,14.50
2008,05,17,04,03,14.50
2008,05,17,04,04,14.70
2008,05,17,04,05,14.70
2008,05,17,04,06,14.90
2008,05,17,04,07,15.00
2008,05,17,04,08,15.20
2008,05,17,04,09,15.30
2008,05,17,04,10,15.40
2008,05,17,04,11,15.50
2008,05,17,04,12,15.50
2008,05,17,04,13,15.70
2008,05,17,04,14,15.90
2008,05,17,04,15,15.90
2008,05,17,04,16,16.00
2008,05,17,04,17,16.10
2008,05,17,04,18,16.10
2008,05,17,04,19,16.10
2008,05,17,04,20,16.10
2008,05,17,04,21,16.10
2008,05,17,04,22,16.10
2008,05,17,04,23,16.20
2008,05,17,04,24,16.20
2008,05,17,04,25,16.20
2008,05,17,04,26,16.30
2008,05,17,04,27,16.30
2008,05,17,04,28,16.30
2008,05,17,04,29,16.40
2008,05,17,04,30,16.40
2008,05,17,04,31,16.40
2008,05,17,04,32,16.50
2008,05,17,04,33,16.60
2008,05,17,04,34,16.60
2008,05,17,04,35,16.70
2008,05,17,04,36,16.70
2008,05,17,04,37,16.70
2008,05,17,04,38,16.70
2008,05,17,04,39,16.70
2008,05,17,04,40,16.70
2008,05,17,04,41,16.70
2008,05,17,04,42,16.70
2008,05,17,04,43,16.60
2008,05,17,04,44,16.40
2008,05,17,04,45,16.40
2008,05,17,04,46,16.20
2008,05,17,04,47,16.10
2008,05,17,04,48,16.10
2008,05,17,04,49,16.10
2008,05,17,04,50,16.20
2008,05,17,04,51,16.20
2008,05,17,04,52,16.30
2008,05,17,04,53,16.30
2008,05,17,04,54,16.20
2008,05,17,04,55,16.20
2008,05,17,04,56,16.20
2008,05,17,04,57,16.20
2008,05,17,04,58,16.30
2008,05,17,04,59,16.30
2008,05,17,05,00,16.40
2008,05,17,05,01,16.40
2008,05,17,05,02,16.40
2008,05,17,05,03,16.40
2008,05,17,05,04,16.40
2008,05,17,05,05,16.40
2008,05,17,05,06,16.40
2008,05,17,05,07,16.30
2008,05,17,05,08,16.20
2008,05,17,05,09,16.00
2008,05,17,05,10,15.70
2008,05,17,05,11,15.50
2008,05,17,05,12,15.40
2008,05,17,05,13,15.20
2008,05,17,05,14,15.00
2008,05,17,05,15,14.90
2008,05,17,05,16,14.80
2008,05,17,05,17,14.60
2008,05,17,05,18,14.60
2008,05,17,05,19,14.50
2008,05,17,05,20,14.50
2008,05,17,05,21,14.40
2008,05,17,05,22,14.40
2008,05,17,05,23,14.40
2008,05,17,05,24,14.40
2008,05,17,05,25,14.40
2008,05,17,05,26,14.50
2008,05,17,05,27,14.50
2008,05,17,05,28,14.50
2008,05,17,05,29,14.50
2008,05,17,05,30,14.60
2008,05,17,05,31,14.60
2008,05,17,05,32,14.60
2008,05,17,05,33,14.50
2008,05,17,05,34,14.50
2008,05,17,05,35,14.50
2008,05,17,05,36,14.50
2008,05,17,05,37,14.60
2008,05,17,05,38,14.60
2008,05,17,05,39,14.70
2008,05,17,05,40,14.70
2008,05,17,05,41,14.80
2008,05,17,05,42,14.80
2008,05,17,05,43,14.90
2008,05,17,05,44,15.00
2008,05,17,05,45,15.10
2008,05,17,05,46,15.20
2008,05,17,05,47,15.30
2008,05,17,05,48,15.30
2008,05,17,05,49,15.30
2008,05,17,05,50,15.30
2008,05,17,05,51,15.30
2008,05,17,05,52,15.30
2008,05,17,05,53,15.40
2008,05,17,05,54,15.50
2008,05,17,05,55,15.60
2008,05,17,05,56,15.70
2008,05,17,05,57,15.80
2008,05,17,05,58,15.90
2008,05,17,05,59,16.00
2008,05,17,06,00,16.10
2008,05,17,06,01,16.10
2008,05,17,06,02,16.20
2008,05,17,06,03,16.20
2008,05,17,06,04,16.30
2008,05,17,06,05,16.30
2008,05,17,06,06,16.30
2008,05,17,06,07,16.30
2008,05,17,06,08,16.30
2008,05,17,06,09,16.30
2008,05,17,06,10,16.30
2008,05,17,06,11,16.30
2008,05,17,06,12,16.40
2008,05,17,06,13,16.40
2008,05,17,06,14,16.60
2008,05,17,06,15,16.70
2008,05,17,06,16,16.70
2008,05,17,06,17,16.70
2008,05,17,06,18,16.70
2008,05,17,06,19,16.60
2008,05,17,06,20,16.50
2008,05,17,06,21,16.40
2008,05,17,06,22,16.40
2008,05,17,06,23,16.30
2008,05,17,06,24,16.20
2008,05,17,06,25,16.20
2008,05,17,06,26,16.20
2008,05,17,06,27,16.10
2008,05,17,06,28,16.00
2008,05,17,06,29,15.90
2008,05,17,06,30,15.80
2008,05,17,06,31,15.80
2008,05,17,06,32,15.70
2008,05,17,06,33,15.70
2008,05,17,06,34,15.70
2008,05,17,06,35,15.60
2008,05,17,06,36,15.60
2008,05,17,06,37,15.60
2008,05,17,06,38,15.70
2008,05,17,06,39,15.80
2008,05,17,06,40,16.00
2008,05,17,06,41,16.20
2008,05,17,06,42,16.30
2008,05,17,06,43,16.40
2008,05,17,06,44,16.50
2008,05,17,06,45,16.60
2008,05,17,06,46,16.70
2008,05,17,06,47,16.70
2008,05,17,06,48,16.80
2008,05,17,06,49,16.90
2008,05,17,06,50,16.90
2008,05,17,06,51,16.90
2008,05,17,06,52,17.00
2008,05,17,06,53,17.00
2008,05,17,06,54,17.10
2008,05,17,06,55,17.10
2008,05,17,06,56,17.10
2008,05,17,06,57,17.10
2008,05,17,06,58,17.10
2008,05,17,06,59,17.10
2008,05,17,07,00,17.20
2008,05,17,07,01,17.20
2008,05,17,07,02,17.30
2008,05,17,07,03,17.30
2008,05,17,07,04,17.30
2008,05,17,07,05,17.40
2008,05,17,07,06,17.50
2008,05,17,07,07,17.50
2008,05,17,07,08,17.50
2008,05,17,07,09,17.50
2008,05,17,07,10,17.50
2008,05,17,07,11,17.60
2008,05,17,07,12,17.60
2008,05,17,07,13,17.70
2008,05,17,07,14,17.70
2008,05,17,07,15,17.70
2008,05,17,07,16,17.80
2008,05,17,07,17,17.80
2008,05,17,07,18,17.80
2008,05,17,07,19,17.80
2008,05,17,07,20,17.90
2008,05,17,07,21,17.90
2008,05,17,07,22,17.90
2008,05,17,07,23,17.90
2008,05,17,07,24,17.90
2008,05,17,07,25,17.90
2008,05,17,07,26,17.90
2008,05,17,07,27,17.90
2008,05,17,07,28,17.90
2008,05,17,07,29,17.90
2008,05,17,07,30,17.90
2008,05,17,07,31,17.90
2008,05,17,07,32,17.80
2008,05,17,07,33,17.80
2008,05,17,07,34,17.70
2008,05,17,07,35,17.70
2008,05,17,07,36,17.50
2008,05,17,07,37,17.40
2008,05,17,07,38,17.30
2008,05,17,07,39,17.20
2008,05,17,07,40,17.10
2008,05,17,07,41,17.00
2008,05,17,07,42,16.90
2008,05,17,07,43,16.90
2008,05,17,07,44,16.90
2008,05,17,07,45,16.80
2008,05,17,07,46,16.80
2008,05,17,07,47,16.80
2008,05,17,07,48,16.80
2008,05,17,07,49,16.80
2008,05,17,07,50,16.80
2008,05,17,07,51,16.90
2008,05,17,07,52,16.90
2008,05,17,07,53,16.90
2008,05,17,07,54,17.00
2008,05,17,07,55,17.10
2008,05,17,07,56,17.20
2008,05,17,07,57,17.30
2008,05,17,07,58,17.30
2008,05,17,07,59,17.40
2008,05,17,08,00,17.50
2008,05,17,08,01,17.60
2008,05,17,08,02,17.70
2008,05,17,08,03,17.80
2008,05,17,08,04,17.80
2008,05,17,08,05,17.90
2008,05,17,08,06,17.90
2008,05,17,08,07,18.00
2008,05,17,08,08,18.10
2008,05,17,08,09,18.20
2008,05,17,08,10,18.20
2008,05,17,08,11,18.30
2008,05,17,08,12,18.40
2008,05,17,08,13,18.50
2008,05,17,08,14,18.60
2008,05,17,08,15,18.70
2008,05,17,08,16,18.80
2008,05,17,08,17,18.90
2008,05,17,08,18,18.90
2008,05,17,08,19,18.90
2008,05,17,08,20,18.90
2008,05,17,08,21,19.00
2008,05,17,08,22,19.10
2008,05,17,08,23,19.20
2008,05,17,08,24,19.30
2008,05,17,08,25,19.40
2008,05,17,08,26,19.40
2008,05,17,08,27,19.40
2008,05,17,08,28,19.40
2008,05,17,08,29,19.40
2008,05,17,08,30,19.40
2008,05,17,08,31,19.40
2008,05,17,08,32,19.40
2008,05,17,08,33,19.40
2008,05,17,08,34,19.50
2008,05,17,08,35,19.50
2008,05,17,08,36,19.60
2008,05,17,08,37,19.60
2008,05,17,08,38,19.60
2008,05,17,08,39,19.60
2008,05,17,08,40,19.60
2008,05,17,08,41,19.60
2008,05,17,08,42,19.50
2008,05,17,08,43,19.50
2008,05,17,08,44,19.40
2008,05,17,08,45,19.40
2008,05,17,08,46,19.40
2008,05,17,08,47,19.40
2008,05,17,08,48,19.40
2008,05,17,08,49,19.40
2008,05,17,08,50,19.40
2008,05,17,08,51,19.40
2008,05,17,08,52,19.40
2008,05,17,08,53,19.50
2008,05,17,08,54,19.50
2008,05,17,08,55,19.50
2008,05,17,08,56,19.60
2008,05,17,08,57,19.70
2008,05,17,08,58,19.80
2008,05,17,08,59,19.80
2008,05,17,09,00,19.90
2008,05,17,09,01,19.90
2008,05,17,09,02,19.90
2008,05,17,09,03,19.90
2008,05,17,09,04,19.90
2008,05,17,09,05,20.00
2008,05,17,09,06,20.10
2008,05,17,09,07,20.10
2008,05,17,09,08,20.20
2008,05,17,09,09,20.30
2008,05,17,09,10,20.40
2008,05,17,09,11,20.50
2008,05,17,09,12,20.50
2008,05,17,09,13,20.60
2008,05,17,09,14,20.70
2008,05,17,09,15,20.90
2008,05,17,09,16,21.00
2008,05,17,09,17,21.00
2008,05,17,09,18,21.10
2008,05,17,09,19,21.10
2008,05,17,09,20,21.10
2008,05,17,09,21,21.00
2008,05,17,09,22,20.90
2008,05,17,09,23,20.90
2008,05,17,09,24,20.90
2008,05,17,09,25,20.90
2008,05,17,09,26,21.00
2008,05,17,09,27,21.00
2008,05,17,09,28,21.10
2008,05,17,09,29,21.10
2008,05,17,09,30,21.30
2008,05,17,09,31,21.30
2008,05,17,09,32,21.30
2008,05,17,09,33,21.30
2008,05,17,09,34,21.30
2008,05,17,09,35,21.30
2008,05,17,09,36,21.30
2008,05,17,09,37,21.40
2008,05,17,09,38,21.40
2008,05,17,09,39,21.40
2008,05,17,09,40,21.40
2008,05,17,09,41,21.50
2008,05,17,09,42,21.60
2008,05,17,09,43,21.60
2008,05,17,09,44,21.60
2008,05,17,09,45,21.60
2008,05,17,09,46,21.60
2008,05,17,09,47,21.60
2008,05,17,09,48,21.60
2008,05,17,09,49,21.40
2008,05,17,09,50,21.40
2008,05,17,09,51,21.40
2008,05,17,09,52,21.40
2008,05,17,09,53,21.40
2008,05,17,09,54,21.40
2008,05,17,09,55,21.30
2008,05,17,09,56,21.30
2008,05,17,09,57,21.30
2008,05,17,09,58,21.30
2008,05,17,09,59,21.30
2008,05,17,10,00,21.30
2008,05,17,10,01,21.30
2008,05,17,10,02,21.30
2008,05,17,10,03,21.30
2008,05,17,10,04,21.30
2008,05,17,10,05,21.30
2008,05,17,10,06,21.30
2008,05,17,10,07,21.30
2008,05,17,10,08,21.30
2008,05,17,10,09,21.20
2008,05,17,10,10,21.20
2008,05,17,10,11,21.10
2008,05,17,10,12,21.10
2008,05,17,10,13,21.10
2008,05,17,10,14,21.10
2008,05,17,10,15,21.20
2008,05,17,10,16,21.20
2008,05,17,10,17,21.30
2008,05,17,10,18,21.30
2008,05,17,10,19,21.40
2008,05,17,10,20,21.50
2008,05,17,10,21,21.60
2008,05,17,10,22,21.70
2008,05,17,10,23,21.80
2008,05,17,10,24,21.90
2008,05,17,10,25,22.00
2008,05,17,10,26,22.00
2008,05,17,10,27,22.10
2008,05,17,10,28,22.10
2008,05,17,10,29,22.30
2008,05,17,10,30,22.40
2008,05,17,10,31,22.50
2008,05,17,10,32,22.60
2008,05,17,10,33,22.70
2008,05,17,10,34,22.80
2008,05,17,10,35,22.90
2008,05,17,10,36,22.90
2008,05,17,10,37,22.80
2008,05,17,10,38,22.80
2008,05,17,10,39,22.80
2008,05,17,10,40,22.80
2008,05,17,10,41,22.80
2008,05,17,10,42,22.80
2008,05,17,10,43,22.80
2008,05,17,10,44,22.70
2008,05,17,10,45,22.60
2008,05,17,10,46,22.50
2008,05,17,10,47,22.40
2008,05,17,10,48,22.50
2008,05,17,10,49,22.50
2008,05,17,10,50,22.50
2008,05,17,10,51,22.60
2008,05,17,10,52,22.70
2008,05,17,10,53,22.70
2008,05,17,10,54,22.80
2008,05,17,10,55,22.80
2008,05,17,10,56,22.70
2008,05,17,10,57,22.70
2008,05,17,10,58,22.70
2008,05,17,10,59,22.70
2008,05,17,11,00,22.70
2008,05,17,11,01,22.60
2008,05,17,11,02,22.70
2008,05,17,11,03,22.70
2008,05,17,11,04,22.70
2008,05,17,11,05,22.80
2008,05,17,11,06,22.90
2008,05,17,11,07,23.00
2008,05,17,11,08,23.10
2008,05,17,11,09,23.20
2008,05,17,11,10,23.20
2008,05,17,11,11,23.20
2008,05,17,11,12,23.30
2008,05,17,11,13,23.30
2008,05,17,11,14,23.30
2008,05,17,11,15,23.30
2008,05,17,11,16,23.30
2008,05,17,11,17,23.20
2008,05,17,11,18,23.20
2008,05,17,11,19,23.10
2008,05,17,11,20,23.10
2008,05,17,11,21,23.10
2008,05,17,11,22,23.10
2008,05,17,11,23,23.10
2008,05,17,11,24,23.20
2008,05,17,11,25,23.20
2008,05,17,11,26,23.30
2008,05,17,11,27,23.30
2008,05,17,11,28,23.30
2008,05,17,11,29,23.30
2008,05,17,11,30,23.30
2008,05,17,11,31,23.30
2008,05,17,11,32,23.30
2008,05,17,11,33,23.30
2008,05,17,11,34,23.30
2008,05,17,11,35,23.10
2008,05,17,11,36,23.00
2008,05,17,11,37,22.90
2008,05,17,11,38,22.70
2008,05,17,11,39,22.60
2008,05,17,11,40,22.40
2008,05,17,11,41,22.30
2008,05,17,11,42,22.30
2008,05,17,11,43,22.40
2008,05,17,11,44,22.40
2008,05,17,11,45,22.50
2008,05,17,11,46,22.50
2008,05,17,11,47,22.60
2008,05,17,11,48,22.60
2008,05,17,11,49,22.70
2008,05,17,11,50,22.70
2008,05,17,11,51,22.60
2008,05,17,11,52,22.60
2008,05,17,11,53,22.50
2008,05,17,11,54,22.50
2008,05,17,11,55,22.60
2008,05,17,11,56,22.60
2008,05,17,11,57,22.70
2008,05,17,11,58,22.70
2008,05,17,11,59,22.80
2008,05,17,12,00,22.80
2008,05,17,12,01,22.80
2008,05,17,12,02,22.70
2008,05,17,12,03,22.70
2008,05,17,12,04,22.60
2008,05,17,12,05,22.60
2008,05,17,12,06,22.50
2008,05,17,12,07,22.50
2008,05,17,12,08,22.50
2008,05,17,12,09,22.60
2008,05,17,12,10,22.60
2008,05,17,12,11,22.60
2008,05,17,12,12,22.60
2008,05,17,12,13,22.60
2008,05,17,12,14,22.60
2008,05,17,12,15,22.70
2008,05,17,12,16,22.70
2008,05,17,12,17,22.70
2008,05,17,12,18,22.80
2008,05,17,12,19,22.80
2008,05,17,12,20,22.90
2008,05,17,12,21,22.90
2008,05,17,12,22,22.90
2008,05,17,12,23,22.90
2008,05,17,12,24,22.90
2008,05,17,12,25,23.00
2008,05,17,12,26,22.90
2008,05,17,12,27,22.90
2008,05,17,12,28,23.00
2008,05,17,12,29,23.10
2008,05,17,12,30,23.10
2008,05,17,12,31,23.20
2008,05,17,12,32,23.20
2008,05,17,12,33,23.20
2008,05,17,12,34,23.20
2008,05,17,12,35,23.20
2008,05,17,12,36,23.20
2008,05,17,12,37,23.20
2008,05,17,12,38,23.20
2008,05,17,12,39,23.20
2008,05,17,12,40,23.10
2008,05,17,12,41,23.10
2008,05,17,12,42,23.10
2008,05,17,12,43,23.20
2008,05,17,12,44,23.20
2008,05,17,12,45,23.30
2008,05,17,12,46,23.40
2008,05,17,12,47,23.40
2008,05,17,12,48,23.40
2008,05,17,12,49,23.50
2008,05,17,12,50,23.60
2008,05,17,12,51,23.60
2008,05,17,12,52,23.50
2008,05,17,12,53,23.50
2008,05,17,12,54,23.40
2008,05,17,12,55,23.40
2008,05,17,12,56,23.30
2008,05,17,12,57,23.30
2008,05,17,12,58,23.30
2008,05,17,12,59,23.20
2008,05,17,13,00,23.10
2008,05,17,13,01,23.20
2008,05,17,13,02,23.20
2008,05,17,13,03,23.20
2008,05,17,13,04,23.20
2008,05,17,13,05,23.30
2008,05,17,13,06,23.30
2008,05,17,13,07,23.30
2008,05,17,13,08,23.30
2008,05,17,13,09,23.40
2008,05,17,13,10,23.50
2008,05,17,13,11,23.60
2008,05,17,13,12,23.70
2008,05,17,13,13,23.70
2008,05,17,13,14,23.70
2008,05,17,13,15,23.70
2008,05,17,13,16,23.80
2008,05,17,13,17,23.80
2008,05,17,13,18,24.00
2008,05,17,13,19,24.10
2008,05,17,13,20,24.20
2008,05,17,13,21,24.30
2008,05,17,13,22,24.40
2008,05,17,13,23,24.40
2008,05,17,13,24,24.40
2008,05,17,13,25,24.50
2008,05,17,13,26,24.60
2008,05,17,13,27,24.60
2008,05,17,13,28,24.70
2008,05,17,13,29,24.70
2008,05,17,13,30,24.70
2008,05,17,13,31,24.60
2008,05,17,13,32,24.50
2008,05,17,13,33,24.50
2008,05,17,13,34,24.50
2008,05,17,13,35,24.60
2008,05,17,13,36,24.60
2008,05,17,13,37,24.70
2008,05,17,13,38,24.70
2008,05,17,13,39,24.60
2008,05,17,13,40,24.50
2008,05,17,13,41,24.50
2008,05,17,13,42,24.60
2008,05,17,13,43,24.60
2008,05,17,13,44,24.60
2008,05,17,13,45,24.60
2008,05,17,13,46,24.60
2008,05,17,13,47,24.60
2008,05,17,13,48,24.60
2008,05,17,13,49,24.70
2008,05,17,13,50,24.80
2008,05,17,13,51,24.90
2008,05,17,13,52,25.00
2008,05,17,13,53,25.00
2008,05,17,13,54,25.10
2008,05,17,13,55,25.20
2008,05,17,13,56,25.40
2008,05,17,13,57,25.50
2008,05,17,13,58,25.50
2008,05,17,13,59,25.50
2008,05,17,14,00,25.50
2008,05,17,14,01,25.40
2008,05,17,14,02,25.40
2008,05,17,14,03,25.40
2008,05,17,14,04,25.50
2008,05,17,14,05,25.50
2008,05,17,14,06,25.50
2008,05,17,14,07,25.40
2008,05,17,14,08,25.40
2008,05,17,14,09,25.30
2008,05,17,14,10,25.30
2008,05,17,14,11,25.30
2008,05,17,14,12,25.30
2008,05,17,14,13,25.40
2008,05,17,14,14,25.40
2008,05,17,14,15,25.30
2008,05,17,14,16,25.30
2008,05,17,14,17,25.20
2008,05,17,14,18,25.10
2008,05,17,14,19,25.10
2008,05,17,14,20,25.10
2008,05,17,14,21,25.00
2008,05,17,14,22,25.00
2008,05,17,14,23,25.00
2008,05,17,14,24,25.10
2008,05,17,14,25,25.20
2008,05,17,14,26,25.40
2008,05,17,14,27,25.40
2008,05,17,14,28,25.50
2008,05,17,14,29,25.60
2008,05,17,14,30,25.60
2008,05,17,14,31,25.60
2008,05,17,14,32,25.60
2008,05,17,14,33,25.70
2008,05,17,14,34,25.70
2008,05,17,14,35,25.70
2008,05,17,14,36,25.60
2008,05,17,14,37,25.60
2008,05,17,14,38,25.50
2008,05,17,14,39,25.20
2008,05,17,14,40,24.80
2008,05,17,14,41,24.40
2008,05,17,14,42,24.10
2008,05,17,14,43,23.90
2008,05,17,14,44,23.70
2008,05,17,14,45,23.50
2008,05,17,14,46,23.30
2008,05,17,14,47,23.30
2008,05,17,14,48,23.30
2008,05,17,14,49,23.30
2008,05,17,14,50,23.20
2008,05,17,14,51,23.20
2008,05,17,14,52,23.20
2008,05,17,14,53,23.20
2008,05,17,14,54,23.20
2008,05,17,14,55,23.20
2008,05,17,14,56,23.20
2008,05,17,14,57,23.20
2008,05,17,14,58,23.30
2008,05,17,14,59,23.40
2008,05,17,15,00,23.50
2008,05,17,15,01,23.60
2008,05,17,15,02,23.60
2008,05,17,15,03,23.60
2008,05,17,15,04,23.70
2008,05,17,15,05,23.70
2008,05,17,15,06,23.80
2008,05,17,15,07,23.80
2008,05,17,15,08,23.80
2008,05,17,15,09,23.90
2008,05,17,15,10,24.00
2008,05,17,15,11,24.10
2008,05,17,15,12,24.10
2008,05,17,15,13,24.10
2008,05,17,15,14,23.90
2008,05,17,15,15,23.90
2008,05,17,15,16,23.80
2008,05,17,15,17,23.70
2008,05,17,15,18,23.70
2008,05,17,15,19,23.70
2008,05,17,15,20,23.60
2008,05,17,15,21,23.70
2008,05,17,15,22,23.70
2008,05,17,15,23,23.60
2008,05,17,15,24,23.40
2008,05,17,15,25,23.30
2008,05,17,15,26,23.30
2008,05,17,15,27,23.20
2008,05,17,15,28,23.20
2008,05,17,15,29,23.20
2008,05,17,15,30,23.20
2008,05,17,15,31,23.30
2008,05,17,15,32,23.30
2008,05,17,15,33,23.40
2008,05,17,15,34,23.60
2008,05,17,15,35,23.60
2008,05,17,15,36,23.90
2008,05,17,15,37,23.90
2008,05,17,15,38,23.80
2008,05,17,15,39,23.80
2008,05,17,15,40,23.70
2008,05,17,15,41,23.70
2008,05,17,15,42,23.70
2008,05,17,15,43,23.70
2008,05,17,15,44,23.70
2008,05,17,15,45,23.70
2008,05,17,15,46,23.70
2008,05,17,15,47,23.70
2008,05,17,15,48,23.70
2008,05,17,15,49,23.70
2008,05,17,15,50,23.70
2008,05,17,15,51,23.70
2008,05,17,15,52,23.60
2008,05,17,15,53,23.50
2008,05,17,15,54,23.40
2008,05,17,15,55,23.40
2008,05,17,15,56,23.30
2008,05,17,15,57,23.30
2008,05,17,15,58,23.40
2008,05,17,15,59,23.40
2008,05,17,16,00,23.60
2008,05,17,16,01,23.60
2008,05,17,16,02,23.70
2008,05,17,16,03,23.80
2008,05,17,16,04,23.90
2008,05,17,16,05,23.90
2008,05,17,16,06,23.90
2008,05,17,16,07,24.00
2008,05,17,16,08,24.10
2008,05,17,16,09,24.10
2008,05,17,16,10,24.20
2008,05,17,16,11,24.30
2008,05,17,16,12,24.30
2008,05,17,16,13,24.30
2008,05,17,16,14,24.50
2008,05,17,16,15,24.50
2008,05,17,16,16,24.50
2008,05,17,16,17,24.50
2008,05,17,16,18,24.60
2008,05,17,16,19,24.80
2008,05,17,16,20,24.90
2008,05,17,16,21,25.00
2008,05,17,16,22,25.10
2008,05,17,16,23,25.20
2008,05,17,16,24,25.20
2008,05,17,16,25,25.20
2008,05,17,16,26,25.20
2008,05,17,16,27,25.10
2008,05,17,16,28,24.80
2008,05,17,16,29,24.60
2008,05,17,16,30,24.50
2008,05,17,16,31,24.30
2008,05,17,16,32,24.20
2008,05,17,16,33,24.10
2008,05,17,16,34,23.60
2008,05,17,16,35,23.30
2008,05,17,16,36,23.20
2008,05,17,16,37,23.00
2008,05,17,16,38,22.90
2008,05,17,16,39,22.70
2008,05,17,16,40,22.60
2008,05,17,16,41,22.40
2008,05,17,16,42,22.10
2008,05,17,16,43,21.80
2008,05,17,16,44,21.60
2008,05,17,16,45,21.60
2008,05,17,16,46,21.40
2008,05,17,16,47,21.30
2008,05,17,16,48,21.30
2008,05,17,16,49,21.30
2008,05,17,16,50,21.30
2008,05,17,16,51,21.30
2008,05,17,16,52,21.30
2008,05,17,16,53,21.40
2008,05,17,16,54,21.40
2008,05,17,16,55,21.50
2008,05,17,16,56,21.60
2008,05,17,16,57,21.60
2008,05,17,16,58,21.60
2008,05,17,16,59,21.60
2008,05,17,17,00,21.60
2008,05,17,17,01,21.60
2008,05,17,17,02,21.60
2008,05,17,17,03,21.60
2008,05,17,17,04,21.60
2008,05,17,17,05,21.60
2008,05,17,17,06,21.60
2008,05,17,17,07,21.60
2008,05,17,17,08,21.70
2008,05,17,17,09,21.80
2008,05,17,17,10,22.00
2008,05,17,17,11,22.20
2008,05,17,17,12,22.30
2008,05,17,17,13,22.40
2008,05,17,17,14,22.50
2008,05,17,17,15,22.60
2008,05,17,17,16,22.80
2008,05,17,17,17,22.90
2008,05,17,17,18,23.00
2008,05,17,17,19,23.20